Tracking 30120 objects as of 6-Feb-2025
HD Live streaming from Space Station
objects crossing your sky now

PEGASUS DEB

Track PEGASUS DEB now!
10-day predictions


NORAD ID: 24973
Int'l Code: 1994-029ACF
Perigee: 570.2 km
Apogee: 1,011.5 km
Inclination: 82.0 °
Period: 100.5 minutes
Semi major axis: 7161 km
RCS: 0.0085 m2 (small)
Launch date: May 19, 1994
Source: United States (US)
Launch site: AIR FORCE WESTERN TEST RANGE (AFWTR)

Note: This is SATELLITE DEBRIS
Your satellite tracking list
Your tracking list is empty




NASA's NSSDC Master Catalog

Two Line Element Set (TLE):
1 24973U 94029ACF 25036.73609082  .00009295  00000-0  20203-2 0  9994
2 24973  82.0173 145.2850 0308062 204.9022 310.1865 14.32403231477657
Source of the keplerian elements: AFSPC